Regional Weather Roundup
Issued by NWS

Home | Current Version | Previous Version | Text Only | Print | Product List | Glossary On
Versions: 1 2 3 4 5 6 7 8 9 10 11 12 13 14 15 16 17 18 19 20 21 22 23 24 25 26 27 28 29 30 31 32 33 34 35 36 37 38 39 40 41 42 43 44 45 46 47 48 49 50
000
ASUS45 KABQ 260110
RWRNM
NEW MEXICO REGIONAL WEATHER ROUNDUP
NATIONAL WEATHER SERVICE ALBUQUERQUE NM
700 PM MDT TUE JUL 25 2017

NOTE: "FAIR" MEANS FEW OR NO CLOUDS BELOW 12,000 FEET AGL WITH NO
       SIGNIFICANT WEATHER OR OBSTRUCTIONS TO VISION.

      THIS PRODUCT IS RELEASED AS TWO VERSIONS.  ONE VERSION NEAR
      THE TOP OF THE HOUR CONTAINING PRELIMINARY DATA FROM ALBUQUERQUE
      AND OTHER STATIONS.  A FINAL VERSION WITH ADDITIONAL DATA IS
      ISSUED ABOUT 10 MINUTES AFTER THE HOUR.

NMZ501-503-504-510>518-260200-
NORTHWEST PLATEAU/NORTHCENTRAL MOUNTAINS

CITY           SKY/WX    TMP DP  RH WIND       PRES   REMARKS
FARMINGTON     FAIR      82  56  40 N3        30.13F
LOS ALAMOS     FAIR      70  57  64 W3        30.32S
SANTA FE       FAIR      80  54  40 N9        30.24S
TAOS           PTSUNNY   72  52  49 CALM      30.32S
ANGEL FIRE     CLOUDY    67  51  57 W6        30.41R

$$
NMZ402-403-502-505>509-260200-
WESTCENTRAL MOUNTAINS/SOUTHWEST MOUNTAINS

CITY           SKY/WX    TMP DP  RH WIND       PRES   REMARKS
GALLUP         FAIR      79  54  41 SW8       30.24F
GRANTS         FAIR      74  56  53 E7        30.28F
SILVER CITY    FAIR      83  54  36 W13       30.19R

$$
NMZ407-409-411-412-260200-
SOUTHERN DESERTS

CITY           SKY/WX    TMP DP  RH WIND       PRES   REMARKS
DEMING         FAIR      88  59  37 W14       30.10R
LAS CRUCES     PTSUNNY   88  60  39 E6        30.11S
HOLLOMAN AFB   FAIR      95  55  25 S5        30.08R
ALAMOGORDO     FAIR      91  54  27 S8        30.08S
T OR C         FAIR      90  29  11 VRB3      30.11S

$$
NMZ519>523-260200-
CENTRAL VALLEYS/CENTRAL HIGHLANDS

CITY           SKY/WX    TMP DP  RH WIND       PRES   REMARKS
ALBUQUERQUE    PTSUNNY   86  53  32 W9        30.17R
MORIARTY ARPT  PTSUNNY   82  55  39 W14       30.23S
CLINES CORNERS FAIR      78  51  38 W15       30.29R
BELEN          FAIR      85  51  30 SE5       30.16R
SOCORRO        FAIR      84  54  35 CALM      30.13R

$$
NMZ524>526-539-540-260200-
SOUTHCENTRAL MOUNTAINS

CITY           SKY/WX    TMP DP  RH WIND       PRES   REMARKS
RUIDOSO        FAIR      73  55  53 NW6       30.32R

$$
NMZ527>531-260200-
NORTHEAST HIGHLANDS/NORTHEAST PLAINS

CITY           SKY/WX    TMP DP  RH WIND       PRES   REMARKS
LAS VEGAS      FAIR      70  56  61 SW22G33   30.26R
RATON          FAIR      83  54  36 S8        30.16S
CLAYTON        FAIR      88  54  31 S20G30    30.07F

$$
NMZ532>537-260200-
EASTCENTRAL PLAINS

CITY           SKY/WX    TMP DP  RH WIND       PRES   REMARKS
SANTA ROSA     FAIR      85  54  34 SE9       30.08S
TUCUMCARI      FAIR      94  58  29 S21G29    30.01R
CANNON AFB     FAIR      90  55  30 S14       30.10S
CLOVIS AIRPORT FAIR      89  58  34 S14       30.10R

$$
NMZ028-029-538-260200-
SOUTHEAST PLAINS

CITY           SKY/WX    TMP DP  RH WIND       PRES   REMARKS
ROSWELL        FAIR      96  52  22 S17G25    30.02S
ARTESIA        FAIR      95  59  30 S16       30.03S
CARLSBAD       FAIR      87  65  47 SW13      30.01S
HOBBS          FAIR      91  52  25 SE16      30.08S


$$




USA.gov is the U.S. government's official web portal to all federal, state and local government web resources and services.